Location: Burgerwiesen
(48.6500°N, 15.6167°E)
Time: 07:58:49
(UTC+00:00)

SJ-11-01 - Visible Passes

Search period start: 11 August 2020 00:00
Search period end: 21 August 2020 00:00
Orbit: 685 x 700 km, 98.0° (Epoch: 11 August)

Date Brightness Start Highest point End Pass type
(mag) Time Alt. Az. Time Alt. Az. Time Alt. Az.
11 Aug 6.6 18:58:28 10° SSW 19:02:24 26° W 19:06:23 10° NW visible
12 Aug 7.3 19:41:06 10° WSW 19:42:36 11° W 19:44:06 10° WNW visible
14 Aug 7.0 19:21:11 10° SW 19:24:14 17° W 19:27:17 10° NW visible
16 Aug 6.7 19:02:05 10° SSW 19:05:54 24° W 19:09:45 10° NW visible
17 Aug 7.5 19:45:22 10° W 19:46:07 10° W 19:46:52 10° WNW visible
18 Aug 6.1 18:43:18 10° SSW 18:47:37 34° W 18:51:58 10° NNW visible
19 Aug 7.1 19:24:55 10° SW 19:27:43 15° W 19:30:32 10° NW visible
